Time,TemperatureF,DewpointF,PressureIn,WindDirection,WindDirectionDegrees,WindSpeedMPH,WindSpeedGustMPH,Humidity,HourlyPrecipIn,Conditions,Clouds,dailyrainin,SoftwareType,DateUTC
2013-01-16 00:03:00,64.0,63.0,30.08,North,0,0.0,0.0,96,99.99,,,-99.99,,2013-01-16 05:03:00,
2013-01-16 00:12:00,64.0,63.0,30.08,North,0,0.0,0.0,96,99.99,,,-99.99,,2013-01-16 05:12:00,
2013-01-16 00:22:00,64.0,63.0,30.08,North,0,0.0,0.0,97,99.99,,,-99.99,,2013-01-16 05:22:00,
2013-01-16 00:32:00,63.0,63.0,30.07,North,0,0.0,0.0,99,99.99,,,-99.99,,2013-01-16 05:32:00,
2013-01-16 00:42:00,63.0,63.0,30.07,North,0,0.0,0.0,99,99.99,,,-99.99,,2013-01-16 05:42:00,
2013-01-16 00:53:00,63.0,63.0,30.07,North,0,0.0,0.0,99,99.99,,,-99.99,,2013-01-16 05:53:00,
2013-01-16 01:03:00,63.0,63.0,30.07,North,0,0.0,0.0,100,99.99,,,-99.99,,2013-01-16 06:03:00,
2013-01-16 01:12:00,63.0,63.0,30.07,North,0,0.0,0.0,100,99.99,,,-99.99,,2013-01-16 06:12:00,
2013-01-16 01:22:00,63.0,63.0,30.07,North,0,0.0,0.0,100,99.99,,,-99.99,,2013-01-16 06:22:00,
2013-01-16 01:32:00,64.0,64.0,30.07,SE,128,1.0,3.0,100,99.99,,,-99.99,,2013-01-16 06:32:00,
2013-01-16 01:43:00,64.0,64.0,30.07,SE,128,1.0,3.0,100,99.99,,,-99.99,,2013-01-16 06:43:00,
2013-01-16 01:53:00,64.0,64.0,30.07,North,0,0.0,0.0,100,99.99,,,-99.99,,2013-01-16 06:53:00,
2013-01-16 02:02:00,64.0,64.0,30.07,North,0,0.0,0.0,100,99.99,,,-99.99,,2013-01-16 07:02:00,
2013-01-16 02:12:00,64.0,64.0,30.07,North,0,0.0,0.0,100,99.99,,,-99.99,,2013-01-16 07:12:00,
2013-01-16 02:22:00,64.0,64.0,30.07,North,0,0.0,0.0,100,99.99,,,-99.99,,2013-01-16 07:22:00,
2013-01-16 02:33:00,64.0,64.0,30.07,North,0,0.0,0.0,100,99.99,,,-99.99,,2013-01-16 07:33:00,
2013-01-16 02:42:00,64.0,64.0,30.07,North,0,0.0,0.0,100,99.99,,,-99.99,,2013-01-16 07:42:00,
2013-01-16 02:52:00,63.0,63.0,30.07,North,0,0.0,0.0,100,99.99,,,-99.99,,2013-01-16 07:52:00,
2013-01-16 03:02:00,63.0,63.0,30.07,North,0,0.0,0.0,100,99.99,,,-99.99,,2013-01-16 08:02:00,
2013-01-16 03:12:00,63.0,63.0,30.07,North,0,0.0,0.0,100,99.99,,,-99.99,,2013-01-16 08:12:00,
2013-01-16 03:22:00,63.0,63.0,30.07,North,0,0.0,0.0,100,99.99,,,-99.99,,2013-01-16 08:22:00,
2013-01-16 03:32:00,62.0,62.0,30.07,North,0,0.0,0.0,100,99.99,,,-99.99,,2013-01-16 08:32:00,
2013-01-16 03:42:00,62.0,62.0,30.07,North,0,0.0,0.0,100,99.99,,,-99.99,,2013-01-16 08:42:00,
2013-01-16 03:52:00,61.0,61.0,30.07,North,0,0.0,0.0,100,99.99,,,-99.99,,2013-01-16 08:52:00,
2013-01-16 04:02:00,61.0,61.0,30.06,North,0,0.0,0.0,100,99.99,,,-99.99,,2013-01-16 09:02:00,
2013-01-16 04:12:00,61.0,61.0,30.06,North,0,0.0,0.0,100,99.99,,,-99.99,,2013-01-16 09:12:00,
2013-01-16 04:22:00,60.0,60.0,30.06,North,0,0.0,0.0,100,99.99,,,-99.99,,2013-01-16 09:22:00,
2013-01-16 04:32:00,60.0,60.0,30.06,North,0,0.0,0.0,100,99.99,,,-99.99,,2013-01-16 09:32:00,
2013-01-16 04:42:00,60.0,60.0,30.06,North,0,0.0,0.0,100,99.99,,,-99.99,,2013-01-16 09:42:00,
2013-01-16 04:53:00,60.0,60.0,30.06,South,181,1.0,3.0,100,99.99,,,-99.99,,2013-01-16 09:53:00,
2013-01-16 05:02:00,60.0,60.0,30.06,South,181,2.0,3.0,100,99.99,,,-99.99,,2013-01-16 10:02:00,
2013-01-16 05:12:00,60.0,60.0,30.06,South,181,2.0,3.0,100,99.99,,,-99.99,,2013-01-16 10:12:00,
2013-01-16 05:22:00,60.0,60.0,30.05,South,173,1.0,3.0,100,99.99,,,-99.99,,2013-01-16 10:22:00,
2013-01-16 05:32:00,61.0,61.0,30.06,SSE,165,2.0,4.0,100,99.99,,,-99.99,,2013-01-16 10:32:00,
2013-01-16 05:42:00,61.0,61.0,30.06,SSE,165,2.0,4.0,100,99.99,,,-99.99,,2013-01-16 10:42:00,
2013-01-16 05:53:00,60.0,60.0,30.05,SSE,156,0.0,2.0,100,99.99,,,-99.99,,2013-01-16 10:53:00,
2013-01-16 06:02:00,60.0,60.0,30.06,North,0,0.0,0.0,100,99.99,,,-99.99,,2013-01-16 11:02:00,
2013-01-16 06:12:00,60.0,60.0,30.06,North,0,0.0,0.0,100,99.99,,,-99.99,,2013-01-16 11:12:00,
2013-01-16 06:23:00,60.0,60.0,30.06,North,0,0.0,0.0,100,99.99,,,-99.99,,2013-01-16 11:23:00,
2013-01-16 06:33:00,59.0,59.0,30.06,North,0,0.0,0.0,100,99.99,,,-99.99,,2013-01-16 11:33:00,
2013-01-16 06:42:00,59.0,59.0,30.06,North,0,0.0,0.0,100,99.99,,,-99.99,,2013-01-16 11:42:00,
2013-01-16 06:53:00,59.0,59.0,30.07,North,0,0.0,0.0,100,99.99,,,-99.99,,2013-01-16 11:53:00,
2013-01-16 07:03:00,59.0,59.0,30.07,North,0,0.0,0.0,100,99.99,,,-99.99,,2013-01-16 12:03:00,
2013-01-16 07:13:00,59.0,59.0,30.07,North,0,0.0,0.0,100,99.99,,,-99.99,,2013-01-16 12:13:00,
2013-01-16 07:22:00,59.0,59.0,30.07,South,187,1.0,3.0,100,99.99,,,-99.99,,2013-01-16 12:22:00,
2013-01-16 07:33:00,59.0,59.0,30.08,SSW,195,3.0,4.0,100,99.99,,,-99.99,,2013-01-16 12:33:00,
2013-01-16 07:43:00,59.0,59.0,30.08,SSW,195,3.0,4.0,100,99.99,,,-99.99,,2013-01-16 12:43:00,
2013-01-16 07:53:00,60.0,60.0,30.08,North,0,0.0,0.0,100,99.99,,,-99.99,,2013-01-16 12:53:00,
2013-01-16 08:03:00,60.0,60.0,30.09,North,0,0.0,0.0,100,99.99,,,-99.99,,2013-01-16 13:03:00,
2013-01-16 08:12:00,60.0,60.0,30.09,North,0,0.0,0.0,100,99.99,,,-99.99,,2013-01-16 13:12:00,
2013-01-16 08:22:00,60.0,60.0,30.09,North,0,0.0,0.0,100,99.99,,,-99.99,,2013-01-16 13:22:00,
2013-01-16 08:33:00,62.0,62.0,30.10,North,0,0.0,0.0,100,99.99,,,-99.99,,2013-01-16 13:33:00,
2013-01-16 08:43:00,62.0,62.0,30.10,North,0,0.0,0.0,100,99.99,,,-99.99,,2013-01-16 13:43:00,
2013-01-16 08:53:00,64.0,64.0,30.10,North,0,0.0,0.0,100,99.99,,,-99.99,,2013-01-16 13:53:00,
2013-01-16 09:03:00,65.0,65.0,30.10,North,0,0.0,0.0,100,99.99,,,-99.99,,2013-01-16 14:03:00,
2013-01-16 09:12:00,65.0,65.0,30.10,North,0,0.0,0.0,100,99.99,,,-99.99,,2013-01-16 14:12:00,
2013-01-16 09:23:00,68.0,68.0,30.11,North,0,0.0,0.0,100,99.99,,,-99.99,,2013-01-16 14:23:00,
2013-01-16 09:33:00,69.0,69.0,30.11,SW,222,2.0,4.0,100,99.99,,,-99.99,,2013-01-16 14:33:00,
2013-01-16 09:43:00,69.0,69.0,30.11,SW,222,2.0,4.0,100,99.99,,,-99.99,,2013-01-16 14:43:00,
2013-01-16 09:53:00,71.0,71.0,30.11,WSW,249,4.0,7.0,100,99.99,,,-99.99,,2013-01-16 14:53:00,
2013-01-16 10:03:00,73.0,72.0,30.11,SW,233,4.0,6.0,97,99.99,,,-99.99,,2013-01-16 15:03:00,
2013-01-16 10:12:00,73.0,72.0,30.11,SW,233,4.0,6.0,97,99.99,,,-99.99,,2013-01-16 15:12:00,
2013-01-16 10:23:00,76.0,65.0,30.12,SW,228,6.0,10.0,69,99.99,,,-99.99,,2013-01-16 15:23:00,
2013-01-16 10:33:00,78.0,64.0,30.11,SW,228,6.0,9.0,62,99.99,,,-99.99,,2013-01-16 15:33:00,
2013-01-16 10:43:00,78.0,64.0,30.11,SW,228,6.0,9.0,62,99.99,,,-99.99,,2013-01-16 15:43:00,
2013-01-16 10:53:00,79.0,63.0,30.11,SW,228,4.0,7.0,59,99.99,,,-99.99,,2013-01-16 15:53:00,
2013-01-16 11:03:00,80.0,62.0,30.10,SSW,201,6.0,9.0,54,99.99,,,-99.99,,2013-01-16 16:03:00,
2013-01-16 11:12:00,80.0,62.0,30.10,SSW,201,6.0,9.0,54,99.99,,,-99.99,,2013-01-16 16:12:00,
2013-01-16 11:22:00,80.0,61.0,30.10,SW,217,7.0,10.0,53,99.99,,,-99.99,,2013-01-16 16:22:00,
2013-01-16 11:33:00,81.0,61.0,30.09,SW,236,6.0,10.0,51,99.99,,,-99.99,,2013-01-16 16:33:00,
2013-01-16 11:43:00,81.0,61.0,30.09,SW,236,6.0,10.0,51,99.99,,,-99.99,,2013-01-16 16:43:00,
2013-01-16 11:53:00,81.0,61.0,30.08,WSW,238,4.0,9.0,51,99.99,,,-99.99,,2013-01-16 16:53:00,
2013-01-16 12:03:00,81.0,59.0,30.07,SW,215,5.0,9.0,48,99.99,,,-99.99,,2013-01-16 17:03:00,
2013-01-16 12:12:00,81.0,59.0,30.07,SW,215,5.0,9.0,48,99.99,,,-99.99,,2013-01-16 17:12:00,
2013-01-16 12:23:00,81.0,61.0,30.07,WSW,238,5.0,8.0,50,99.99,,,-99.99,,2013-01-16 17:23:00,
2013-01-16 12:33:00,82.0,58.0,30.06,SW,228,8.0,11.0,44,99.99,,,-99.99,,2013-01-16 17:33:00,
2013-01-16 12:43:00,82.0,58.0,30.06,SW,228,8.0,11.0,44,99.99,,,-99.99,,2013-01-16 17:43:00,
2013-01-16 12:53:00,83.0,59.0,30.06,South,190,6.0,10.0,44,99.99,,,-99.99,,2013-01-16 17:53:00,
2013-01-16 13:03:00,84.0,58.0,30.05,South,177,7.0,13.0,42,99.99,,,-99.99,,2013-01-16 18:03:00,
2013-01-16 13:13:00,84.0,58.0,30.04,SW,235,8.0,13.0,42,99.99,,,-99.99,,2013-01-16 18:13:00,
2013-01-16 13:23:00,84.0,58.0,30.04,SW,235,8.0,13.0,42,99.99,,,-99.99,,2013-01-16 18:23:00,
2013-01-16 13:33:00,84.0,59.0,30.03,South,181,7.0,12.0,43,99.99,,,-99.99,,2013-01-16 18:33:00,
2013-01-16 13:42:00,84.0,59.0,30.03,South,181,7.0,12.0,43,99.99,,,-99.99,,2013-01-16 18:42:00,
2013-01-16 13:53:00,84.0,60.0,30.03,South,188,9.0,13.0,44,99.99,,,-99.99,,2013-01-16 18:53:00,
2013-01-16 14:03:00,83.0,59.0,30.03,SW,225,9.0,13.0,45,99.99,,,-99.99,,2013-01-16 19:03:00,
2013-01-16 14:12:00,83.0,59.0,30.03,SW,225,9.0,13.0,45,99.99,,,-99.99,,2013-01-16 19:12:00,
2013-01-16 14:23:00,84.0,60.0,30.02,WSW,250,6.0,10.0,45,99.99,,,-99.99,,2013-01-16 19:23:00,
2013-01-16 14:33:00,83.0,61.0,30.02,SW,219,3.0,7.0,47,99.99,,,-99.99,,2013-01-16 19:33:00,
2013-01-16 14:43:00,83.0,61.0,30.02,SW,219,3.0,7.0,47,99.99,,,-99.99,,2013-01-16 19:43:00,
2013-01-16 14:52:00,82.0,61.0,30.02,SW,233,4.0,7.0,49,99.99,,,-99.99,,2013-01-16 19:52:00,
2013-01-16 15:03:00,82.0,61.0,30.01,South,176,4.0,7.0,49,99.99,,,-99.99,,2013-01-16 20:03:00,
2013-01-16 15:12:00,82.0,61.0,30.01,South,176,4.0,7.0,49,99.99,,,-99.99,,2013-01-16 20:12:00,
2013-01-16 15:23:00,82.0,61.0,30.01,SSW,198,5.0,8.0,49,99.99,,,-99.99,,2013-01-16 20:23:00,
2013-01-16 15:33:00,83.0,61.0,30.01,WSW,240,3.0,5.0,47,99.99,,,-99.99,,2013-01-16 20:33:00,
2013-01-16 15:43:00,83.0,61.0,30.01,WSW,240,3.0,5.0,47,99.99,,,-99.99,,2013-01-16 20:43:00,
2013-01-16 15:53:00,82.0,61.0,30.01,WNW,284,1.0,4.0,49,99.99,,,-99.99,,2013-01-16 20:53:00,
2013-01-16 16:03:00,80.0,61.0,30.01,SW,221,1.0,2.0,53,99.99,,,-99.99,,2013-01-16 21:03:00,
2013-01-16 16:12:00,80.0,61.0,30.01,SW,221,1.0,2.0,53,99.99,,,-99.99,,2013-01-16 21:12:00,
2013-01-16 16:22:00,80.0,62.0,30.01,SW,225,2.0,5.0,55,99.99,,,-99.99,,2013-01-16 21:22:00,
2013-01-16 16:33:00,79.0,61.0,30.02,SSW,195,2.0,4.0,55,99.99,,,-99.99,,2013-01-16 21:33:00,
2013-01-16 16:43:00,79.0,61.0,30.02,SSW,195,2.0,4.0,55,99.99,,,-99.99,,2013-01-16 21:43:00,
2013-01-16 16:52:00,80.0,61.0,30.01,SSW,207,2.0,5.0,53,99.99,,,-99.99,,2013-01-16 21:52:00,
2013-01-16 17:03:00,80.0,61.0,30.02,South,180,3.0,6.0,52,99.99,,,-99.99,,2013-01-16 22:03:00,
2013-01-16 17:12:00,80.0,61.0,30.02,South,180,3.0,6.0,52,99.99,,,-99.99,,2013-01-16 22:12:00,
2013-01-16 17:23:00,80.0,61.0,30.02,South,169,4.0,6.0,52,99.99,,,-99.99,,2013-01-16 22:23:00,
2013-01-16 17:33:00,80.0,62.0,30.02,South,169,2.0,4.0,55,99.99,,,-99.99,,2013-01-16 22:33:00,
2013-01-16 17:43:00,80.0,62.0,30.02,South,169,2.0,4.0,55,99.99,,,-99.99,,2013-01-16 22:43:00,
2013-01-16 17:52:00,79.0,62.0,30.02,SSE,165,2.0,3.0,57,99.99,,,-99.99,,2013-01-16 22:52:00,
2013-01-16 18:03:00,77.0,63.0,30.02,North,0,0.0,0.0,61,99.99,,,-99.99,,2013-01-16 23:03:00,
2013-01-16 18:12:00,76.0,63.0,30.03,North,0,0.0,0.0,65,99.99,,,-99.99,,2013-01-16 23:12:00,
2013-01-16 18:23:00,76.0,63.0,30.03,North,0,0.0,0.0,65,99.99,,,-99.99,,2013-01-16 23:23:00,
2013-01-16 18:32:00,74.0,63.0,30.03,North,0,0.0,0.0,68,99.99,,,-99.99,,2013-01-16 23:32:00,
2013-01-16 18:42:00,74.0,63.0,30.03,North,0,0.0,0.0,68,99.99,,,-99.99,,2013-01-16 23:42:00,
2013-01-16 18:52:00,73.0,63.0,30.03,North,0,0.0,0.0,70,99.99,,,-99.99,,2013-01-16 23:52:00,
2013-01-16 19:02:00,72.0,62.0,30.03,North,0,0.0,0.0,72,99.99,,,-99.99,,2013-01-17 00:02:00,
2013-01-16 19:12:00,72.0,62.0,30.03,North,0,0.0,0.0,72,99.99,,,-99.99,,2013-01-17 00:12:00,
2013-01-16 19:22:00,70.0,61.0,30.03,SSE,148,2.0,3.0,73,99.99,,,-99.99,,2013-01-17 00:22:00,
2013-01-16 19:32:00,69.0,61.0,30.04,North,0,0.0,0.0,75,99.99,,,-99.99,,2013-01-17 00:32:00,
2013-01-16 19:42:00,69.0,61.0,30.04,North,0,0.0,0.0,75,99.99,,,-99.99,,2013-01-17 00:42:00,
2013-01-16 19:52:00,69.0,61.0,30.04,North,0,0.0,0.0,76,99.99,,,-99.99,,2013-01-17 00:52:00,
2013-01-16 20:02:00,68.0,61.0,30.04,North,0,0.0,0.0,78,99.99,,,-99.99,,2013-01-17 01:02:00,
2013-01-16 20:12:00,68.0,61.0,30.04,North,0,0.0,0.0,78,99.99,,,-99.99,,2013-01-17 01:12:00,
2013-01-16 20:22:00,68.0,61.0,30.05,North,0,0.0,0.0,79,99.99,,,-99.99,,2013-01-17 01:22:00,
2013-01-16 20:33:00,68.0,62.0,30.05,North,0,0.0,0.0,81,99.99,,,-99.99,,2013-01-17 01:33:00,
2013-01-16 20:42:00,68.0,62.0,30.05,North,0,0.0,0.0,81,99.99,,,-99.99,,2013-01-17 01:42:00,
2013-01-16 20:52:00,69.0,63.0,30.05,North,0,0.0,0.0,82,99.99,,,-99.99,,2013-01-17 01:52:00,
2013-01-16 21:02:00,68.0,63.0,30.05,ESE,103,3.0,5.0,83,99.99,,,-99.99,,2013-01-17 02:02:00,
2013-01-16 21:12:00,68.0,63.0,30.05,ESE,103,3.0,5.0,83,99.99,,,-99.99,,2013-01-17 02:12:00,
2013-01-16 21:22:00,68.0,62.0,30.05,North,0,0.0,0.0,82,99.99,,,-99.99,,2013-01-17 02:22:00,
2013-01-16 21:32:00,68.0,63.0,30.05,SSW,212,1.0,4.0,83,99.99,,,-99.99,,2013-01-17 02:32:00,
2013-01-16 21:42:00,68.0,63.0,30.05,SSW,212,1.0,4.0,83,99.99,,,-99.99,,2013-01-17 02:42:00,
2013-01-16 21:52:00,68.0,63.0,30.05,SSW,212,1.0,4.0,83,99.99,,,-99.99,,2013-01-17 02:52:00,
2013-01-16 22:03:00,68.0,64.0,30.05,South,180,1.0,3.0,86,99.99,,,-99.99,,2013-01-17 03:03:00,
2013-01-16 22:12:00,68.0,64.0,30.05,South,180,1.0,3.0,86,99.99,,,-99.99,,2013-01-17 03:12:00,
2013-01-16 22:22:00,68.0,64.0,30.05,North,0,0.0,0.0,87,99.99,,,-99.99,,2013-01-17 03:22:00,
2013-01-16 22:32:00,68.0,64.0,30.04,South,170,1.0,2.0,87,99.99,,,-99.99,,2013-01-17 03:32:00,
2013-01-16 22:42:00,68.0,64.0,30.04,South,170,1.0,2.0,87,99.99,,,-99.99,,2013-01-17 03:42:00,
2013-01-16 22:52:00,68.0,64.0,30.04,North,0,0.0,0.0,86,99.99,,,-99.99,,2013-01-17 03:52:00,
2013-01-16 23:02:00,68.0,63.0,30.04,North,0,0.0,0.0,85,99.99,,,-99.99,,2013-01-17 04:02:00,
2013-01-16 23:12:00,67.0,63.0,30.04,North,0,0.0,0.0,87,99.99,,,-99.99,,2013-01-17 04:12:00,
2013-01-16 23:22:00,67.0,63.0,30.04,North,0,0.0,0.0,87,99.99,,,-99.99,,2013-01-17 04:22:00,
2013-01-16 23:32:00,67.0,64.0,30.04,North,0,0.0,0.0,89,99.99,,,-99.99,,2013-01-17 04:32:00,
2013-01-16 23:42:00,67.0,64.0,30.04,North,0,0.0,0.0,89,99.99,,,-99.99,,2013-01-17 04:42:00,
2013-01-16 23:52:00,67.0,64.0,30.04,North,0,0.0,0.0,89,99.99,,,-99.99,,2013-01-17 04:52:00,